Time,TemperatureF,DewpointF,PressureIn,WindDirection,WindDirectionDegrees,WindSpeedMPH,WindSpeedGustMPH,Humidity,HourlyPrecipIn,Conditions,Clouds,dailyrainin,SoftwareType,DateUTC
2013-09-13 00:05:00,61.7,59.0,29.71,West,262,6.0,9.0,92,0.00,,,0.00,weatherlink.com 1.10,2013-09-13 04:05:00,
2013-09-13 00:20:00,61.5,59.0,29.70,WSW,244,5.0,9.0,92,0.00,,,0.00,weatherlink.com 1.10,2013-09-13 04:20:00,
2013-09-13 00:35:00,61.1,59.0,29.70,West,262,3.0,9.0,93,0.00,,,0.00,weatherlink.com 1.10,2013-09-13 04:35:00,
2013-09-13 00:50:00,61.0,59.0,29.69,WSW,251,2.0,8.0,93,0.00,,,0.00,weatherlink.com 1.10,2013-09-13 04:50:00,
2013-09-13 01:05:00,60.8,59.0,29.69,WSW,244,4.0,10.0,93,0.00,,,0.00,weatherlink.com 1.10,2013-09-13 05:05:00,
2013-09-13 01:20:00,60.6,59.0,29.69,WSW,256,5.0,10.0,93,0.00,,,0.00,weatherlink.com 1.10,2013-09-13 05:20:00,
2013-09-13 01:35:00,60.2,58.0,29.69,West,268,4.0,7.0,93,0.00,,,0.00,weatherlink.com 1.10,2013-09-13 05:35:00,
2013-09-13 01:50:00,60.0,58.0,29.69,WSW,249,5.0,10.0,93,0.00,,,0.00,weatherlink.com 1.10,2013-09-13 05:50:00,
2013-09-13 02:05:00,59.9,58.0,29.69,West,270,8.0,9.0,94,0.00,,,0.00,weatherlink.com 1.10,2013-09-13 06:05:00,
2013-09-13 02:20:00,60.0,58.0,29.69,West,272,7.0,14.0,94,0.00,,,0.00,weatherlink.com 1.10,2013-09-13 06:20:00,
2013-09-13 02:35:00,59.9,58.0,29.69,West,275,10.0,13.0,94,0.00,,,0.00,weatherlink.com 1.10,2013-09-13 06:35:00,
2013-09-13 02:50:00,59.8,58.0,29.68,West,280,4.0,8.0,94,0.00,,,0.00,weatherlink.com 1.10,2013-09-13 06:50:00,
2013-09-13 03:05:00,60.0,58.0,29.69,NW,305,2.0,9.0,94,0.00,,,0.00,weatherlink.com 1.10,2013-09-13 07:05:00,
2013-09-13 03:20:00,60.0,59.0,29.69,WNW,287,6.0,8.0,95,0.00,,,0.00,weatherlink.com 1.10,2013-09-13 07:20:00,
2013-09-13 03:35:00,59.3,58.0,29.70,NW,310,0.0,8.0,94,0.00,,,0.00,weatherlink.com 1.10,2013-09-13 07:35:00,
2013-09-13 03:50:00,59.1,58.0,29.70,West,276,0.0,2.0,95,0.00,,,0.00,weatherlink.com 1.10,2013-09-13 07:50:00,
2013-09-13 04:05:00,59.0,58.0,29.71,West,276,0.0,0.0,95,0.00,,,0.00,weatherlink.com 1.10,2013-09-13 08:05:00,
2013-09-13 04:20:00,59.2,58.0,29.71,NNE,19,3.0,5.0,95,0.00,,,0.00,weatherlink.com 1.10,2013-09-13 08:20:00,
2013-09-13 04:35:00,58.9,58.0,29.71,NW,310,1.0,8.0,95,0.00,,,0.00,weatherlink.com 1.10,2013-09-13 08:35:00,
2013-09-13 04:50:00,58.5,57.0,29.71,NNE,26,5.0,8.0,96,0.00,,,0.00,weatherlink.com 1.10,2013-09-13 08:50:00,
2013-09-13 05:05:00,58.3,57.0,29.71,NW,314,2.0,6.0,96,0.00,,,0.00,weatherlink.com 1.10,2013-09-13 09:05:00,
2013-09-13 05:20:00,58.1,57.0,29.71,North,359,0.0,10.0,96,0.00,,,0.00,weatherlink.com 1.10,2013-09-13 09:20:00,
2013-09-13 05:35:00,58.0,57.0,29.72,North,11,0.0,5.0,96,0.00,,,0.00,weatherlink.com 1.10,2013-09-13 09:35:00,
2013-09-13 05:50:00,58.0,57.0,29.72,WNW,294,2.0,5.0,96,0.00,,,0.00,weatherlink.com 1.10,2013-09-13 09:50:00,
2013-09-13 06:05:00,58.2,57.0,29.72,West,280,4.0,7.0,96,0.00,,,0.00,weatherlink.com 1.10,2013-09-13 10:05:00,
2013-09-13 06:20:00,57.8,57.0,29.72,NNW,347,1.0,8.0,96,0.00,,,0.00,weatherlink.com 1.10,2013-09-13 10:20:00,
2013-09-13 06:36:00,57.5,56.0,29.73,WNW,301,5.0,7.0,96,0.00,,,0.00,weatherlink.com 1.10,2013-09-13 10:36:00,
2013-09-13 06:51:00,57.2,56.0,29.73,North,359,4.0,7.0,96,0.00,,,0.00,weatherlink.com 1.10,2013-09-13 10:51:00,
2013-09-13 07:06:00,56.9,56.0,29.74,WNW,300,0.0,9.0,96,0.00,,,0.00,weatherlink.com 1.10,2013-09-13 11:06:00,
2013-09-13 07:21:00,56.6,56.0,29.74,NW,318,6.0,10.0,96,0.00,,,0.00,weatherlink.com 1.10,2013-09-13 11:21:00,
2013-09-13 07:36:00,56.3,55.0,29.75,NW,322,2.0,7.0,96,0.00,,,0.00,weatherlink.com 1.10,2013-09-13 11:36:00,
2013-09-13 07:51:00,55.9,55.0,29.75,NNE,25,4.0,8.0,96,0.00,,,0.00,weatherlink.com 1.10,2013-09-13 11:51:00,
2013-09-13 08:06:00,55.9,55.0,29.76,North,4,6.0,11.0,96,0.00,,,0.00,weatherlink.com 1.10,2013-09-13 12:06:00,
2013-09-13 08:21:00,55.6,55.0,29.77,NNE,14,2.0,9.0,96,0.00,,,0.00,weatherlink.com 1.10,2013-09-13 12:21:00,
2013-09-13 08:36:00,55.3,54.0,29.77,NW,322,1.0,8.0,96,0.00,,,0.00,weatherlink.com 1.10,2013-09-13 12:36:00,
2013-09-13 08:51:00,55.1,54.0,29.78,North,359,1.0,7.0,96,0.00,,,0.00,weatherlink.com 1.10,2013-09-13 12:51:00,
2013-09-13 09:06:00,54.9,54.0,29.78,East,85,1.0,10.0,96,0.00,,,0.00,weatherlink.com 1.10,2013-09-13 13:06:00,
2013-09-13 09:21:00,54.8,54.0,29.79,NNW,340,8.0,12.0,96,0.00,,,0.00,weatherlink.com 1.10,2013-09-13 13:21:00,
2013-09-13 09:36:00,54.6,54.0,29.79,North,359,8.0,11.0,96,0.00,,,0.00,weatherlink.com 1.10,2013-09-13 13:36:00,
2013-09-13 09:51:00,54.4,53.0,29.80,NW,320,6.0,10.0,96,0.00,,,0.00,weatherlink.com 1.10,2013-09-13 13:51:00,
2013-09-13 10:06:00,54.2,53.0,29.80,West,281,4.0,10.0,96,0.00,,,0.00,weatherlink.com 1.10,2013-09-13 14:06:00,
2013-09-13 10:21:00,53.9,53.0,29.81,NNE,14,4.0,11.0,96,0.00,,,0.00,weatherlink.com 1.10,2013-09-13 14:21:00,
2013-09-13 10:36:00,54.3,53.0,29.81,NNE,16,10.0,12.0,96,0.00,,,0.00,weatherlink.com 1.10,2013-09-13 14:36:00,
2013-09-13 10:51:00,53.2,52.0,29.82,NNW,331,3.0,13.0,95,0.00,,,0.00,weatherlink.com 1.10,2013-09-13 14:51:00,
2013-09-13 11:06:00,53.0,52.0,29.82,ENE,67,3.0,6.0,96,0.00,,,0.00,weatherlink.com 1.10,2013-09-13 15:06:00,
2013-09-13 11:21:00,53.1,52.0,29.83,NNW,341,3.0,8.0,96,0.00,,,0.00,weatherlink.com 1.10,2013-09-13 15:21:00,
2013-09-13 11:36:00,53.0,52.0,29.83,North,8,4.0,10.0,96,0.00,,,0.00,weatherlink.com 1.10,2013-09-13 15:36:00,
2013-09-13 11:51:00,53.4,52.0,29.83,NNW,348,4.0,12.0,96,0.00,,,0.00,weatherlink.com 1.10,2013-09-13 15:51:00,
2013-09-13 12:06:00,53.4,52.0,29.83,NW,323,6.0,10.0,96,0.00,,,0.00,weatherlink.com 1.10,2013-09-13 16:06:00,
2013-09-13 12:21:00,53.7,52.0,29.83,NE,38,7.0,11.0,95,0.00,,,0.00,weatherlink.com 1.10,2013-09-13 16:21:00,
2013-09-13 12:36:00,53.7,52.0,29.84,NNW,334,2.0,10.0,94,0.00,,,0.00,weatherlink.com 1.10,2013-09-13 16:36:00,
2013-09-13 12:51:00,53.2,52.0,29.84,North,11,5.0,9.0,94,0.00,,,0.00,weatherlink.com 1.10,2013-09-13 16:51:00,
2013-09-13 13:06:00,53.2,51.0,29.84,NE,39,2.0,9.0,93,0.00,,,0.00,weatherlink.com 1.10,2013-09-13 17:06:00,
2013-09-13 13:21:00,53.0,51.0,29.85,NNW,333,5.0,9.0,93,0.00,,,0.00,weatherlink.com 1.10,2013-09-13 17:21:00,
2013-09-13 13:37:00,52.6,51.0,29.85,WNW,299,3.0,14.0,93,0.00,,,0.00,weatherlink.com 1.10,2013-09-13 17:37:00,
2013-09-13 13:52:00,52.4,51.0,29.85,NNW,347,3.0,9.0,94,0.00,,,0.00,weatherlink.com 1.10,2013-09-13 17:52:00,
2013-09-13 14:07:00,52.2,51.0,29.85,WNW,297,0.0,11.0,94,0.00,,,0.00,weatherlink.com 1.10,2013-09-13 18:07:00,
2013-09-13 14:22:00,52.4,51.0,29.85,NNW,347,2.0,8.0,95,0.00,,,0.00,weatherlink.com 1.10,2013-09-13 18:22:00,
2013-09-13 14:37:00,52.4,51.0,29.85,West,281,2.0,10.0,94,0.00,,,0.00,weatherlink.com 1.10,2013-09-13 18:37:00,
2013-09-13 14:52:00,52.2,50.0,29.86,North,349,4.0,11.0,93,0.00,,,0.00,weatherlink.com 1.10,2013-09-13 18:52:00,
2013-09-13 15:07:00,52.2,51.0,29.86,NW,323,5.0,11.0,94,0.00,,,0.00,weatherlink.com 1.10,2013-09-13 19:07:00,
2013-09-13 15:22:00,52.2,50.0,29.86,WNW,303,2.0,11.0,93,0.00,,,0.00,weatherlink.com 1.10,2013-09-13 19:22:00,
2013-09-13 15:37:00,52.4,50.0,29.87,NNW,330,6.0,13.0,91,0.00,,,0.00,weatherlink.com 1.10,2013-09-13 19:37:00,
2013-09-13 15:52:00,52.6,50.0,29.87,WNW,294,5.0,10.0,91,0.00,,,0.00,weatherlink.com 1.10,2013-09-13 19:52:00,
2013-09-13 16:07:00,52.6,50.0,29.87,NW,307,3.0,11.0,91,0.00,,,0.00,weatherlink.com 1.10,2013-09-13 20:07:00,
2013-09-13 16:22:00,52.5,50.0,29.88,West,280,2.0,8.0,91,0.00,,,0.00,weatherlink.com 1.10,2013-09-13 20:22:00,
2013-09-13 16:37:00,52.6,50.0,29.88,WNW,295,1.0,11.0,90,0.00,,,0.00,weatherlink.com 1.10,2013-09-13 20:37:00,
2013-09-13 16:52:00,51.8,50.0,29.89,NW,308,4.0,10.0,92,0.00,,,0.00,weatherlink.com 1.10,2013-09-13 20:52:00,
2013-09-13 17:07:00,51.5,50.0,29.90,WNW,287,4.0,6.0,93,0.00,,,0.00,weatherlink.com 1.10,2013-09-13 21:07:00,
2013-09-13 17:22:00,51.1,50.0,29.90,WSW,245,2.0,9.0,94,0.00,,,0.00,weatherlink.com 1.10,2013-09-13 21:22:00,
2013-09-13 17:37:00,51.0,49.0,29.90,NW,318,4.0,8.0,94,0.00,,,0.00,weatherlink.com 1.10,2013-09-13 21:37:00,
2013-09-13 17:52:00,51.0,49.0,29.90,WNW,301,1.0,10.0,94,0.00,,,0.00,weatherlink.com 1.10,2013-09-13 21:52:00,
2013-09-13 18:07:00,51.1,50.0,29.91,NW,313,0.0,6.0,94,0.00,,,0.00,weatherlink.com 1.10,2013-09-13 22:07:00,
2013-09-13 18:22:00,51.0,49.0,29.91,NNW,330,4.0,8.0,94,0.00,,,0.00,weatherlink.com 1.10,2013-09-13 22:22:00,
2013-09-13 18:37:00,51.0,49.0,29.91,West,279,6.0,7.0,94,0.00,,,0.00,weatherlink.com 1.10,2013-09-13 22:37:00,
2013-09-13 18:52:00,50.7,49.0,29.92,WNW,293,3.0,6.0,94,0.00,,,0.00,weatherlink.com 1.10,2013-09-13 22:52:00,
2013-09-13 19:07:00,50.8,49.0,29.92,WNW,291,1.0,5.0,94,0.00,,,0.00,weatherlink.com 1.10,2013-09-13 23:07:00,
2013-09-13 19:22:00,50.7,49.0,29.93,NNW,332,2.0,5.0,94,0.00,,,0.00,weatherlink.com 1.10,2013-09-13 23:22:00,
2013-09-13 19:37:00,50.5,49.0,29.93,NW,326,1.0,4.0,94,0.00,,,0.00,weatherlink.com 1.10,2013-09-13 23:37:00,
2013-09-13 19:52:00,50.6,49.0,29.94,NW,324,0.0,3.0,95,0.00,,,0.00,weatherlink.com 1.10,2013-09-13 23:52:00,
2013-09-13 20:07:00,50.6,49.0,29.95,WNW,289,1.0,5.0,94,0.00,,,0.00,weatherlink.com 1.10,2013-09-14 00:07:00,
2013-09-13 20:22:00,50.5,49.0,29.96,NW,308,5.0,6.0,94,0.00,,,0.00,weatherlink.com 1.10,2013-09-14 00:22:00,
2013-09-13 20:37:00,50.2,49.0,29.96,WNW,291,2.0,6.0,95,0.00,,,0.00,weatherlink.com 1.10,2013-09-14 00:37:00,
2013-09-13 20:52:00,50.2,49.0,29.96,WNW,293,1.0,6.0,95,0.00,,,0.00,weatherlink.com 1.10,2013-09-14 00:52:00,
2013-09-13 21:07:00,50.1,49.0,29.97,NE,53,2.0,6.0,95,0.00,,,0.00,weatherlink.com 1.10,2013-09-14 01:07:00,
2013-09-13 21:23:00,49.7,48.0,29.97,NW,314,2.0,7.0,95,0.00,,,0.00,weatherlink.com 1.10,2013-09-14 01:23:00,
2013-09-13 21:38:00,49.7,49.0,29.97,NE,51,1.0,5.0,96,0.00,,,0.00,weatherlink.com 1.10,2013-09-14 01:38:00,
2013-09-13 21:53:00,49.8,49.0,29.97,WNW,303,1.0,6.0,96,0.00,,,0.00,weatherlink.com 1.10,2013-09-14 01:53:00,
2013-09-13 22:08:00,49.8,49.0,29.97,NW,325,3.0,5.0,96,0.00,,,0.00,weatherlink.com 1.10,2013-09-14 02:08:00,
2013-09-13 22:23:00,49.7,49.0,29.98,NNW,335,3.0,8.0,96,0.00,,,0.00,weatherlink.com 1.10,2013-09-14 02:23:00,
2013-09-13 22:38:00,49.4,48.0,29.98,NE,42,4.0,9.0,95,0.00,,,0.00,weatherlink.com 1.10,2013-09-14 02:38:00,
2013-09-13 22:53:00,49.2,48.0,29.98,North,8,4.0,6.0,96,0.00,,,0.00,weatherlink.com 1.10,2013-09-14 02:53:00,
2013-09-13 23:08:00,49.0,48.0,29.98,North,10,2.0,7.0,96,0.00,,,0.00,weatherlink.com 1.10,2013-09-14 03:08:00,
2013-09-13 23:23:00,48.9,48.0,29.98,North,354,1.0,5.0,96,0.00,,,0.00,weatherlink.com 1.10,2013-09-14 03:23:00,
2013-09-13 23:38:00,49.0,48.0,29.98,NNW,336,1.0,4.0,96,0.00,,,0.00,weatherlink.com 1.10,2013-09-14 03:38:00,
2013-09-13 23:53:00,48.8,48.0,29.98,North,4,1.0,6.0,96,0.00,,,0.00,weatherlink.com 1.10,2013-09-14 03:53:00,